Location: Czernica
(51.0462°N, 17.2458°E)
Time: 13:57:33
(UTC+01:00)

ISS - Pass Details

Date: 31 January 2019
Orbit: 403 x 411 km, 51.6° (Epoch: 23 February)

Event Time Altitude Azimuth Distance (km) Brightness Sun altitude
Rises 19:45:14 0° 283° (WNW) 2,341 1.3 -29.1°
Reaches altitude 10° 19:47:20 10° 281° (W) 1,480 -0.1 -29.5°
Enters shadow 19:48:03 16° 280° (W) 1,190 -0.7 -29.6°
